Theta_e
334 330 327 325 316 318 316 319 323 322 324 331 332 331 329 330 327 321 339 334 335 347 357 360 364 364 365 364 364 363 362 363 362 361 360 360 360 359 359 359 360 360 360 357 356 356 356 356 355
326 324 323 320 312 311 314 320 316 318 329 332 331 332 331 331 336 337 337 334 339 349 356 358 363 363 362 363 363 362 362 362 360 359 359 359 358 357 357 357 357 356 356 357 357 356 356 355 355
323 324 316 314 312 310 314 318 317 318 320 329 327 329 332 333 338 339 343 335 343 349 353 361 363 363 362 362 362 362 361 360 359 358 357 356 356 355 355 354 354 353 353 353 353 354 354 354 354
321 319 316 308 309 314 317 317 317 319 321 322 326 324 338 341 340 343 340 337 344 347 351 361 363 363 363 361 361 361 361 360 359 357 356 355 354 354 354 354 355 355 354 352 351 351 351 351 350
320 317 308 307 308 316 316 316 319 318 321 319 321 321 334 341 343 345 338 338 341 344 353 358 363 363 362 360 361 361 360 361 359 357 355 353 353 354 355 357 356 355 353 351 350 348 347 345 344
314 315 307 305 308 313 315 318 319 319 323 322 319 323 335 343 341 340 337 339 340 343 353 353 362 363 362 361 361 362 361 361 359 358 356 353 352 354 356 357 355 351 348 346 344 341 340 340 340
313 311 307 307 309 310 314 319 318 319 323 320 329 323 338 341 340 339 337 337 339 344 349 350 352 359 362 362 362 362 361 361 360 359 357 354 351 351 354 356 355 351 346 343 341 339 339 340 342
315 313 308 307 307 309 315 317 319 321 327 329 334 328 335 340 340 339 338 337 338 340 346 348 349 349 351 354 361 361 361 361 360 358 356 355 352 350 350 353 354 352 347 342 341 341 342 346 349
316 309 306 306 307 312 315 315 319 327 326 330 337 338 344 344 339 337 336 336 337 337 343 345 345 346 346 347 355 359 359 359 358 356 356 354 348 347 347 351 352 350 349 347 346 348 349 351 352
312 309 309 312 313 312 313 314 316 319 326 330 334 340 344 344 339 335 334 334 336 337 340 343 344 345 346 345 353 351 352 353 352 351 353 349 349 351 350 351 350 349 350 352 353 353 353 351 342
312 308 312 311 313 314 313 314 317 318 319 322 326 336 341 344 342 338 337 337 337 338 339 342 345 350 346 346 351 348 348 349 351 353 356 353 348 349 347 349 344 346 350 343 346 344 342 342 340
309 311 312 312 312 311 311 314 314 317 316 319 320 327 336 340 342 341 339 340 340 340 340 343 345 349 352 347 350 351 348 349 348 351 356 355 349 348 347 348 348 348 344 346 344 343 343 341 341
309 310 311 311 312 312 312 311 312 314 318 319 320 322 329 332 337 340 341 341 343 342 343 344 347 352 355 362 352 352 351 350 351 351 354 352 349 347 346 348 348 349 348 346 346 346 346 346 345
312 310 311 311 312 312 310 310 312 315 317 317 319 320 322 325 330 335 339 342 345 349 347 348 348 355 355 358 362 353 352 353 351 350 351 353 351 352 345 346 348 348 349 349 348 348 349 349 347
311 307 310 310 311 310 312 307 309 314 316 316 317 319 320 321 323 327 335 344 347 350 353 351 352 354 358 355 358 360 355 352 351 350 356 354 355 356 357 344 344 347 350 350 352 351 352 350 349
308 309 304 310 309 310 310 305 311 314 314 315 316 317 318 321 321 323 327 335 348 352 356 356 352 352 357 356 353 356 354 353 352 351 351 354 353 356 357 347 344 344 349 349 349 348 347 349 355
308 302 304 307 311 310 310 307 313 315 315 315 316 319 322 324 323 330 334 333 343 353 357 356 356 352 356 359 357 359 362 355 356 352 350 358 353 351 353 347 345 351 344 345 346 346 349 346 349
304 303 305 304 310 310 309 308 311 314 315 316 319 326 330 329 333 341 342 340 345 350 359 360 358 361 365 360 361 356 355 357 357 355 353 358 353 352 354 353 351 350 346 345 343 355 351 354 348
307 304 304 307 310 307 308 308 310 314 315 318 324 328 331 334 339 340 344 347 345 350 356 360 359 365 359 354 355 353 351 354 354 353 357 355 355 353 353 349 351 354 355 356 357 354 354 346 351
305 304 304 307 308 308 307 307 311 313 317 321 323 325 327 330 332 332 335 339 342 348 353 358 361 364 361 357 360 356 354 353 353 354 359 356 356 355 356 356 352 356 354 356 354 354 353 351 344
306 304 304 303 306 308 307 305 308 313 318 320 322 325 326 324 324 326 327 327 330 335 340 350 356 363 363 364 360 358 357 355 351 352 352 355 353 353 356 353 353 354 351 349 349 345 344 338 342
302 307 304 303 303 299 307 298 306 311 314 316 318 321 322 323 321 320 319 320 322 323 326 340 341 347 353 360 358 363 352 350 350 351 350 353 356 355 358 360 356 357 353 352 349 351 345 343 333
303 307 304 304 302 302 302 299 305 311 310 313 316 318 320 320 318 316 316 316 319 324 324 325 327 331 337 343 353 349 357 355 358 355 355 363 360 360 358 360 359 360 346 343 349 347 343 345 339
307 305 305 305 303 296 301 301 304 307 311 311 315 317 318 318 318 315 315 316 316 322 323 324 324 324 328 328 337 333 333 340 341 341 346 351 349 356 353 355 356 352 355 352 350 349 344 343 341
306 303 296 295 296 296 305 300 305 310 311 312 313 315 317 318 316 316 317 315 316 316 318 318 322 323 326 326 326 330 331 332 333 332 332 333 337 338 340 345 349 355 355 354 355 348 344 343 342
303 302 296 290 293 296 304 296 304 311 313 314 315 317 316 316 315 313 315 314 314 317 319 316 316 318 321 323 324 326 328 332 331 335 335 335 336 336 337 334 341 346 350 354 350 350 348 345 344
303 300 307 299 299 295 298 304 311 311 310 312 312 315 314 315 314 314 315 315 315 314 317 320 322 321 322 322 322 325 325 327 327 329 328 328 332 334 335 333 336 340 344 347 350 348 349 351 353
304 307 298 300 292 290 296 298 301 307 306 307 309 313 315 314 314 314 313 314 316 312 313 317 316 317 320 320 321 321 323 324 325 326 326 328 329 329 333 331 333 333 338 341 346 345 347 349 348
304 302 301 301 299 293 292 297 308 307 308 308 310 312 315 313 314 316 316 316 317 313 312 311 312 312 313 316 319 319 319 319 323 323 323 325 327 328 329 332 333 332 332 336 339 341 340 338 345
304 301 302 297 296 298 297 297 309 308 308 308 309 311 315 317 315 315 317 318 317 316 316 312 313 310 311 314 313 314 315 317 319 318 319 322 323 324 325 328 331 329 328 331 331 329 329 332 335
Wind_Speed
14 15 10 11 10 11 7 17 6 10 4 8 5 9 15 10 15 6 13 11 18 22 20 17 14 14 15 15 14 14 13 13 14 14 13 11 11 11 10 10 9 9 9 9 9 9 9 9 8
14 11 10 10 11 14 6 9 12 8 10 4 3 5 4 15 12 10 14 15 19 21 18 18 15 14 15 16 15 14 13 13 13 13 13 13 11 10 9 9 8 8 8 7 7 7 7 7 7
14 11 10 13 13 16 9 8 10 4 1 5 1 2 6 9 7 10 14 20 20 19 18 18 16 14 14 15 16 14 14 12 13 13 13 11 11 10 9 8 8 7 6 6 5 4 3 3 3
8 9 9 11 16 11 9 10 4 4 3 4 1 4 11 7 1 5 17 21 20 20 19 19 15 14 15 14 14 14 13 12 11 12 12 11 10 8 8 7 7 6 5 4 3 3 3 1 1
9 9 12 12 17 9 3 3 6 3 4 1 4 6 13 9 8 15 19 19 19 19 19 19 15 14 14 14 14 13 12 11 10 10 10 11 10 9 8 6 6 6 5 4 3 2 1 1 1
9 7 12 12 13 7 3 4 7 6 2 4 6 7 9 7 12 17 19 19 18 18 19 19 16 14 13 13 12 11 10 10 9 9 10 10 9 9 9 8 6 5 5 4 3 2 2 2 2
14 9 14 10 7 7 3 8 5 6 3 7 2 7 8 10 15 18 17 16 17 17 18 17 17 15 13 12 12 11 10 9 9 9 9 9 9 8 8 8 7 5 4 4 4 4 4 4 5
9 9 14 9 5 6 5 8 5 5 12 5 5 5 15 12 17 17 17 17 16 16 18 17 16 16 15 13 11 11 11 10 9 8 8 8 8 8 8 8 8 6 5 5 5 6 6 7 8
9 10 12 5 3 9 3 7 5 1 7 7 9 13 16 18 16 17 16 16 15 14 17 18 18 17 15 15 13 10 10 10 9 9 8 8 9 10 11 7 11 8 6 6 6 6 8 9 12
10 11 5 9 9 6 3 6 6 7 7 10 13 14 17 20 18 17 17 16 18 17 17 17 17 17 16 12 14 12 11 9 10 10 11 10 11 7 1 9 8 8 8 8 8 9 11 12 11
11 13 10 4 5 7 8 10 5 6 7 13 1 17 14 15 16 17 17 16 16 17 14 17 16 16 17 14 12 8 8 8 9 11 10 10 6 6 5 6 6 7 10 8 10 9 9 14 5
12 2 3 2 0 7 9 9 11 7 13 9 6 6 10 11 13 14 15 16 17 18 16 15 16 14 13 10 10 10 9 9 8 10 11 8 5 7 7 6 9 7 8 7 5 6 3 4 5
10 4 3 4 6 6 7 12 9 8 9 4 3 3 5 10 10 9 10 12 14 17 18 18 16 14 11 7 8 9 10 9 10 9 11 9 8 6 6 6 5 8 8 7 6 4 4 5 6
4 4 7 6 8 5 8 11 9 11 5 6 2 5 4 5 7 10 7 8 9 9 15 17 17 15 14 10 6 9 8 9 9 9 9 12 8 6 7 6 7 6 5 6 5 7 6 8 5
8 11 14 10 5 6 6 12 15 13 4 8 10 5 4 6 8 6 6 9 9 9 11 16 16 17 13 10 9 4 7 8 9 9 11 12 10 7 7 7 7 7 6 7 3 5 5 7 8
12 13 13 14 4 7 10 12 12 3 2 9 10 6 5 8 11 11 7 6 8 9 11 13 15 18 16 13 7 7 9 11 9 9 9 12 11 10 8 8 6 7 6 6 8 7 8 7 4
11 14 9 10 4 5 8 13 11 1 2 7 4 6 8 8 8 16 20 16 7 8 9 12 14 15 18 12 12 12 11 9 8 8 8 11 12 11 9 7 8 6 7 8 7 7 7 6 6
4 6 5 8 9 5 11 11 3 3 3 3 4 11 13 9 16 20 20 16 18 3 8 9 11 11 13 13 10 10 9 8 7 8 8 10 8 10 9 4 7 6 8 8 7 6 6 7 6
8 6 7 3 3 6 13 11 6 7 5 6 11 10 11 15 19 19 19 22 14 12 7 7 10 10 9 11 10 10 10 10 12 12 12 7 5 8 5 10 5 7 10 3 4 4 6 7 6
4 8 8 4 4 8 13 13 11 7 11 8 10 10 12 16 17 16 18 19 19 22 13 9 6 10 11 10 9 10 10 11 10 7 9 11 8 9 8 9 7 2 0 1 3 3 3 3 6
8 8 9 9 11 17 16 19 16 13 11 8 10 12 15 15 15 17 18 17 18 20 19 16 15 5 7 11 8 7 8 7 9 10 10 10 13 12 11 11 8 8 7 6 5 4 6 3 3
13 7 6 10 11 12 2 7 8 18 16 9 8 13 13 14 14 15 16 17 15 15 16 19 17 16 9 7 10 10 9 10 9 8 9 11 13 13 12 10 10 10 7 6 3 5 6 6 6
12 8 12 13 14 15 17 11 1 19 15 9 11 13 13 13 13 15 16 15 14 14 14 15 17 19 17 16 8 7 11 4 5 2 7 8 3 7 9 11 10 10 6 8 12 10 8 5 4
10 14 15 16 16 15 21 10 8 7 10 6 11 13 12 11 11 13 13 13 13 12 12 13 16 16 16 16 15 14 15 11 7 9 8 6 3 2 5 3 4 9 9 9 9 10 8 9 4
10 12 11 9 12 8 9 6 12 10 8 8 9 11 11 9 10 11 12 13 16 17 12 12 13 14 12 12 13 14 13 12 11 10 8 7 6 7 11 8 8 6 4 5 7 8 11 12 11
12 7 9 14 12 9 11 8 11 9 8 8 10 10 7 9 8 11 12 12 13 14 15 15 13 13 12 11 11 10 8 5 8 9 6 4 4 4 5 9 14 9 2 2 5 6 7 11 11
10 9 9 10 15 13 15 11 12 8 7 6 4 9 5 7 7 8 10 11 10 11 14 15 14 13 12 11 11 11 11 11 9 9 7 7 8 5 7 7 7 12 6 4 3 5 8 10 8
10 10 7 9 8 12 11 9 3 11 5 4 5 6 8 3 7 8 7 8 7 10 8 12 13 13 15 13 12 11 11 12 10 8 9 7 5 6 7 5 4 11 10 6 5 7 8 7 7
6 7 8 8 11 8 10 3 8 7 7 5 7 4 10 10 8 7 6 6 8 8 8 6 7 8 9 11 11 10 10 10 9 8 8 7 8 7 5 2 5 8 8 7 7 7 8 9 7
10 13 12 9 10 7 10 11 9 5 5 4 8 8 5 9 5 8 7 2 4 7 7 7 8 9 7 4 6 6 7 8 8 7 9 9 9 8 10 11 9 8 7 8 8 9 7 8 9
Wind_Direction
267 240 267 266 246 240 263 101 121 87 87 46 9 339 12 27 9 49 121 136 139 127 136 146 141 146 146 143 142 143 142 140 136 134 135 131 127 124 122 120 116 111 108 110 111 117 119 119 121
295 281 256 273 266 258 94 90 80 28 62 67 326 258 228 90 47 119 131 138 141 128 143 143 144 148 151 145 144 144 142 139 136 136 138 135 132 127 124 121 117 116 115 113 116 122 127 129 127
264 264 269 246 244 269 103 100 58 25 54 112 247 197 13 37 62 134 121 148 136 141 151 133 148 149 151 150 145 143 140 141 142 139 138 135 131 130 127 123 123 126 128 130 130 123 122 127 125
257 220 238 259 251 253 16 59 54 290 143 158 236 110 101 31 122 120 143 147 138 144 147 138 147 150 151 152 145 142 142 141 141 138 135 131 126 124 125 129 128 126 127 131 134 142 146 129 96
235 264 255 225 250 77 20 354 304 285 158 138 220 99 80 74 89 127 147 148 157 148 133 150 147 152 152 150 146 141 141 139 138 136 133 131 134 137 137 136 134 133 136 140 141 144 155 187 224
242 261 252 235 216 92 195 298 293 284 93 138 192 128 73 112 128 142 152 153 155 151 136 146 151 152 151 148 145 141 141 139 139 139 139 140 143 146 147 148 147 147 152 163 170 180 216 249 267
260 244 266 312 121 168 32 303 332 317 245 139 22 117 109 132 135 148 154 162 153 151 149 155 165 158 148 148 150 149 147 146 149 148 147 149 152 155 157 159 162 169 177 192 208 216 228 246 256
293 287 270 246 205 177 82 282 346 311 57 77 268 158 138 133 146 150 159 163 157 161 154 163 168 170 172 165 162 160 158 157 155 156 157 158 160 169 177 175 173 179 192 212 223 235 242 246 251
247 258 250 195 268 107 102 288 51 254 247 234 60 66 115 149 153 159 162 165 166 172 161 169 173 169 182 170 166 172 175 170 166 173 177 177 201 180 166 130 153 178 196 214 234 245 252 252 248
247 260 344 28 18 340 345 307 343 266 168 151 123 107 132 152 164 167 173 175 176 180 174 175 181 171 184 172 157 191 185 196 197 192 179 217 225 170 242 135 164 187 204 217 224 236 244 246 244
225 264 66 148 333 317 308 274 341 288 120 80 297 125 144 160 172 176 185 183 187 179 186 184 185 176 191 180 160 186 192 199 201 209 197 220 190 178 218 160 182 198 204 208 200 210 232 233 300
267 309 309 45 43 276 286 357 280 295 59 10 53 32 148 166 177 192 194 189 186 183 191 189 183 184 206 184 173 183 199 192 201 201 202 235 228 186 219 208 185 200 167 224 217 217 33 269 248
248 158 228 241 272 274 313 268 282 291 71 333 65 201 201 173 184 208 215 203 193 186 185 194 187 190 195 241 177 190 204 191 204 192 192 230 218 217 218 226 233 196 186 182 196 243 197 218 227
58 316 257 260 271 273 276 275 253 253 76 299 285 262 229 237 212 191 219 245 202 206 184 194 196 180 198 216 222 193 212 209 212 196 198 203 230 214 233 229 229 247 240 234 211 203 202 218 257
243 248 218 223 210 258 300 255 243 251 80 310 279 278 323 293 275 237 230 205 260 201 210 193 198 173 200 207 219 254 192 253 206 221 190 190 209 230 245 232 234 235 240 256 230 291 219 257 246
243 236 252 149 205 138 258 278 150 44 351 301 280 303 316 306 310 297 252 211 202 226 196 211 196 186 186 209 207 207 224 226 237 216 209 199 204 229 194 254 240 253 253 234 238 247 257 231 207
205 260 209 146 160 345 236 294 99 223 5 281 318 348 332 338 320 11 355 343 194 217 216 213 208 205 179 201 214 211 207 231 243 238 228 187 206 202 229 235 239 234 262 259 251 240 242 277 270
268 221 182 269 138 232 276 253 262 255 292 58 355 27 13 3 34 16 351 347 329 224 186 206 219 213 182 189 212 214 219 224 243 241 233 215 210 208 206 250 260 238 234 247 241 262 302 331 308
333 300 287 301 11 278 271 281 277 249 141 47 45 38 17 18 27 11 357 354 343 328 328 203 210 201 219 205 202 214 208 212 214 217 212 206 213 211 185 223 231 218 249 288 18 320 272 264 331
274 265 246 292 235 279 284 265 259 237 89 59 55 53 33 18 21 15 13 359 353 352 345 307 246 210 208 217 220 219 214 215 202 216 195 209 191 228 208 213 203 155 28 88 68 88 338 319 5
230 304 345 317 318 268 247 257 222 124 118 87 66 47 48 39 27 20 17 13 5 357 348 341 316 249 208 252 217 223 255 232 214 211 187 200 215 206 206 198 205 187 210 203 160 128 160 123 351
294 84 285 283 284 286 2 287 169 154 145 101 53 49 40 45 38 34 29 22 20 13 7 357 12 18 346 259 263 231 223 224 219 215 211 180 198 210 193 192 197 206 200 172 195 173 143 162 171
299 343 291 282 273 278 265 238 36 157 142 81 58 53 44 51 47 39 32 24 18 27 27 24 22 24 14 12 16 357 249 295 7 17 56 116 208 233 221 197 192 197 221 221 212 199 207 215 147
315 284 280 260 252 250 242 234 96 102 69 76 65 59 52 52 55 55 43 37 28 39 33 33 33 30 25 24 36 45 39 29 50 50 50 25 18 241 142 147 182 191 205 211 209 209 206 230 229
250 296 285 242 212 250 108 213 67 103 77 56 56 45 60 56 66 63 49 44 33 28 55 39 32 41 28 25 26 36 40 36 44 37 43 15 12 9 4 358 232 219 181 245 239 196 227 230 236
305 307 293 301 292 319 137 235 105 99 91 68 66 82 43 61 70 74 65 49 35 26 12 57 47 40 34 27 25 29 27 20 43 35 47 25 23 347 18 325 359 336 344 231 260 261 233 219 230
19 258 16 308 278 261 279 103 141 144 126 83 68 103 56 90 102 93 67 60 49 47 21 22 30 47 47 41 41 43 38 40 38 36 33 1 352 350 12 24 355 312 327 310 258 258 253 261 254
266 352 259 207 269 272 261 254 98 159 87 51 7 90 124 122 158 130 88 79 77 64 44 39 35 27 19 29 30 30 28 27 32 41 26 8 16 355 342 27 343 305 321 315 305 267 235 246 257
196 227 216 305 303 290 277 298 46 56 89 356 332 342 141 160 191 185 131 86 66 68 58 36 40 23 22 8 7 14 12 13 15 19 16 10 5 349 336 243 250 276 296 304 305 303 296 278 260
281 282 297 278 269 247 287 283 61 91 46 310 282 282 172 165 185 209 205 153 54 89 74 49 33 6 0 331 345 356 2 357 355 10 0 353 3 4 359 334 329 281 274 293 296 286 311 301 293